This is the latest recevied weather packets stored in our database for station/object KD4MBW. If no packets are shown the sender has not sent any weather packets the latest 1 day(s).
| Time | Temp. | Humidity | Pressure | Rain* | Wind** | Luminosity | Snow |
|---|---|---|---|---|---|---|---|
| 1778014681 | 26.11° C | 63% | 1014.7 hPa | 0 mm | 1.79 m/s, 200° | 434 W/m² | - |
| 1778014379 | 26.67° C | 64% | 1014.8 hPa | 0 mm | 2.24 m/s, 189° | 442 W/m² | - |
| 1778014075 | 26.11° C | 64% | 1014.7 hPa | 0 mm | 2.24 m/s, 245° | 462 W/m² | - |
| 1778013773 | 26.11° C | 64% | 1014.9 hPa | 0 mm | 3.13 m/s, 226° | 477 W/m² | - |
| 1778013470 | 27.22° C | 63% | 1014.9 hPa | 0 mm | 3.58 m/s, 226° | 485 W/m² | - |
| 1778013167 | 26.67° C | 62% | 1014.8 hPa | 0 mm | 4.47 m/s, 205° | 531 W/m² | - |
| 1778012863 | 26.11° C | 63% | 1014.9 hPa | 0 mm | 2.68 m/s, 236° | 550 W/m² | - |
| 1778012559 | 26.67° C | 62% | 1015.1 hPa | 0 mm | 4.02 m/s, 226° | 577 W/m² | - |
| 1778012256 | 26.11° C | 63% | 1015.3 hPa | 0 mm | 4.02 m/s, 205° | 551 W/m² | - |
| 1778011953 | 27.22° C | 61% | 1015.3 hPa | 0 mm | 3.58 m/s, 228° | 590 W/m² | - |
| 1778011652 | 26.67° C | 61% | 1015.6 hPa | 0 mm | 4.02 m/s, 186° | 612 W/m² | - |
| 1778011349 | 26.67° C | 61% | 1015.4 hPa | 0 mm | 0.45 m/s, 253° | 656 W/m² | - |
| 1778011044 | 26.67° C | 63% | 1015.5 hPa | 0 mm | 2.24 m/s, 251° | 680 W/m² | - |
| 1778010741 | 26.67° C | 62% | 1015.4 hPa | 0 mm | 1.79 m/s, 256° | 676 W/m² | - |
| 1778010439 | 26.67° C | 61% | 1015.5 hPa | 0 mm | 2.68 m/s, 268° | 660 W/m² | - |
| 1778010135 | 27.22° C | 62% | 1015.6 hPa | 0 mm | 2.68 m/s, 235° | 678 W/m² | - |
| 1778009831 | 26.67° C | 63% | 1015.7 hPa | 0 mm | 2.68 m/s, 254° | 694 W/m² | - |
| 1778009528 | 26.67° C | 63% | 1015.7 hPa | 0 mm | 3.13 m/s, 212° | 715 W/m² | - |
| 1778009227 | 26.67° C | 62% | 1015.5 hPa | 0 mm | 4.47 m/s, 219° | 726 W/m² | - |
| 1778008923 | 26.67° C | 62% | 1015.6 hPa | 0 mm | 2.68 m/s, 213° | 346 W/m² | - |
| 1778008621 | 27.22° C | 63% | 1015.4 hPa | 0 mm | 1.34 m/s, 200° | 690 W/m² | - |
| 1778008319 | 26.67° C | 62% | 1015.5 hPa | 0 mm | 2.68 m/s, 206° | 736 W/m² | - |
| 1778008015 | 26.67° C | 62% | 1015.8 hPa | 0 mm | 3.13 m/s, 240° | 782 W/m² | - |
| 1778007710 | 26.11° C | 64% | 1015.9 hPa | 0 mm | 4.02 m/s, 203° | 787 W/m² | - |
| 1778007407 | 26.11° C | 63% | 1016.1 hPa | 0 mm | 3.13 m/s, 182° | 760 W/m² | - |
* Rain latest hour (hover to see other rain measurements)
** Current wind speed in m/s (hover to see current wind gust speed)